[[{"header":{"parameterUnit":"m.s-1","parameterCategory":1,"la1":30.2991,"la2":30.254,"lo1":-89.0895,"lo2":-89.0444,"dy":0.0017,"dx":0.0017,"nx":28,"ny":28,"refTime":"2025-07-16T03:00:00:Z","depth":0,"parameterNumber":2,"parameterNumberName":"U-component_of_WINDS"},"data":[0,0,0,0,0,0,0,0,0,0,0,0,0,0,0,0,0,0,0,0,0,0,0,0,0,0,0,0,0,0,0,0,0,0,0,0,0,0,0,0,0,0,0,0,0,0,0,0,0,0,0,0,0,0,0,0,0,0,2.4595,2.4594,0,2.4574,2.4573,2.4573,2.4479,2.4477,2.4475,2.4473,2.4453,2.4454,2.4456,0,0,0,0,0,0,0,0,0,0,0,0,0,2.4555,2.4557,2.4595,2.4594,2.4594,2.4574,2.4573,2.4573,2.448,2.4477,2.4474,2.4472,2.4452,2.4454,2.4456,0,0,0,0,0,0,0,0,0,0,0,0,0,2.4557,2.4557,2.4595,2.4545,2.454,2.4574,2.4573,2.4573,2.448,2.4477,2.4474,2.4471,2.4452,2.4454,2.4456,2.4536,0,0,2.4463,2.4464,0,0,0,0,0,0,0,0,2.4557,2.4559,2.4553,2.4549,2.4543,2.4526,2.4552,2.4561,2.4481,2.4503,2.4473,2.4469,2.448,2.448,2.4483,2.4535,2.4534,2.4463,2.4465,2.4466,2.4466,0,0,0,0,0,0,0,2.4557,2.4559,2.4586,2.4553,2.4547,2.4524,2.4521,2.4553,2.451,2.4501,2.4494,2.4493,2.4477,2.4481,2.4482,2.4534,2.4463,2.4465,2.4467,2.4467,2.4651,2.4655,0,0,0,0,0,0,2.4564,2.456,2.4587,2.4586,2.4542,2.4528,2.4524,2.4535,2.451,2.4503,2.4496,2.4489,2.4479,2.4479,2.4481,2.4573,2.4466,2.4468,2.4469,2.4648,2.4652,2.4656,0,0,0,0,0,0,2.4564,2.4567,2.4588,2.4571,2.4572,2.4532,2.4545,2.4536,2.454,2.4506,2.4498,2.4508,2.4476,2.4477,2.4523,2.4571,2.4469,2.4471,2.4644,2.4649,2.4654,2.4759,0,0,0,0,0,0,2.4563,2.4568,2.4597,2.4572,2.4573,2.4631,2.4548,2.4538,2.4544,2.4535,2.4515,2.4509,2.4474,2.452,2.4525,2.4572,2.4473,2.4639,2.4646,2.4652,2.4751,2.4767,2.4781,0,0,0,0,0,2.4562,2.4628,2.4599,2.4603,2.4609,2.4633,2.4634,2.4592,2.4548,2.4578,2.4556,2.4509,2.4565,2.4526,2.4531,2.4579,2.4636,2.4644,2.4652,2.4744,2.4764,2.478,0,0,0,0,0,0,2.466,2.4624,2.4592,2.4651,2.4646,2.4618,2.4654,2.4614,2.4621,2.4612,2.456,2.4557,2.461,2.4599,2.4556,2.4655,2.4592,2.4602,2.4661,2.4679,2.4694,2.4696,2.4474,0,0,0,0,0,2.4689,2.4711,2.4678,2.4734,2.4733,2.4694,2.4703,2.4671,2.4664,2.4661,2.4642,2.4638,2.4654,2.4666,2.4679,2.4748,2.4743,2.4784,2.4799,2.4812,2.4821,2.4858,2.4876,2.4682,2.4682,2.4682,0,0,2.4748,2.4731,2.4748,2.4753,2.4746,2.4771,2.4693,2.4722,2.4741,2.4666,2.4708,2.4694,2.4685,2.4743,2.4768,2.4736,2.4873,2.4822,2.4832,2.4834,2.4868,2.4886,2.4903,2.4687,2.4686,2.4685,0,0,2.4869,2.4858,2.4904,2.4898,2.4887,2.4861,2.4872,2.4849,2.4837,2.4878,2.4823,2.4844,2.4873,2.4869,2.4871,2.4991,2.4949,2.4997,2.5076,2.5112,2.5128,2.5141,2.5185,2.5202,2.5006,2.5006,2.5006,0,2.4945,2.498,2.4933,2.4966,2.497,2.4903,2.495,2.4946,2.4941,2.4945,2.4909,2.4944,2.4933,2.499,2.502,2.5023,2.5035,2.5,2.5129,2.5142,2.5154,2.5195,2.5212,2.5012,2.5011,2.5011,2.501,0,2.5074,2.5099,2.5137,2.5133,2.5142,2.5182,2.5141,2.5155,2.5123,2.5101,2.5144,2.5129,2.5138,2.5149,2.5117,2.5202,2.5182,2.5138,2.5074,2.5179,2.5217,2.5233,2.5021,2.5019,2.5017,2.5015,0,0,2.5257,2.5226,2.5242,2.5239,2.5222,2.5241,2.5278,2.5287,2.5301,2.5299,2.5329,2.5355,2.5315,2.5317,2.5285,2.5317,2.5414,2.5269,2.5268,2.5298,2.5508,2.5542,2.5561,2.5386,2.5388,2.5391,2.5509,0,2.5374,2.5435,2.5394,2.5462,2.5486,2.5422,2.5455,2.5448,2.5429,2.5446,2.5424,2.5444,2.5388,2.5389,2.5418,2.5397,2.5456,2.5387,2.5415,2.5416,2.542,2.5581,2.5617,2.5729,2.5523,2.5526,2.5528,0,2.5518,2.5523,2.5594,2.5573,2.5581,2.5611,2.5616,2.5632,2.5624,2.5607,2.561,2.557,2.5605,2.5541,2.559,2.5544,2.5553,2.5544,2.5548,2.555,2.5479,2.5588,2.5764,2.5781,2.5551,2.5549,2.5547,0,2.5647,2.5671,2.5716,2.5716,2.5692,2.5715,2.5706,2.5694,2.5702,2.5706,2.5711,2.572,2.5725,2.5733,2.5696,2.5653,2.5751,2.5683,2.5739,2.574,2.5763,2.5763,2.5944,2.5767,2.5767,2.5766,2.5766,0,2.5782,2.5829,2.5773,2.5802,2.5852,2.5804,2.5855,2.5839,2.583,2.5854,2.58,2.5824,2.5773,2.5793,2.5764,2.5809,2.5812,2.58,2.5792,2.5806,2.5808,2.5812,2.5804,2.5771,2.577,2.5769,2.5768,0,2.5935,2.59,2.5945,2.5919,2.5913,2.5952,2.5929,2.5955,2.5931,2.5963,2.5968,2.5931,2.5951,2.5915,2.593,2.5911,2.5975,2.5954,2.5978,2.5973,2.6031,2.6026,2.6222,2.6246,2.6053,2.6055,2.6056,0,2.6024,2.6058,2.6036,2.6048,2.6042,2.6063,2.6071,2.6025,2.6036,2.6029,2.6056,2.6071,2.6081,2.6116,2.6091,2.6103,2.6083,2.6151,2.6084,2.6097,2.6086,2.6085,2.6088,2.6165,2.6167,2.6169,2.6171,0,2.6188,2.6169,2.6182,2.619,2.62,2.6204,2.6204,2.6218,2.6169,2.6184,2.6204,2.6211,2.6227,2.6244,2.6249,2.624,2.6199,2.6191,2.6205,2.622,2.6233,2.6229,2.6017,2.6188,2.6186,2.6185,2.6184,2.6183,2.6312,2.634,2.6328,2.6345,2.634,2.6341,2.6364,2.6343,2.6359,2.6368,2.634,2.6366,2.6357,2.6361,2.6357,2.6377,2.6347,2.6367,2.6372,2.6378,2.6388,2.6229,2.6378,2.6377,2.6377,2.6376,2.6376,0,2.6474,2.6463,2.6479,2.6481,2.6494,2.6452,2.645,2.6464,2.6488,2.6483,2.6494,2.6517,2.6533,2.6509,2.6521,2.6542,2.6523,2.6547,2.6546,2.6545,2.6413,2.6401,2.6562,2.6562,2.6562,2.6562,2.6562,2.6562,2.656,2.6605,2.6584,2.6626,2.6615,2.664,2.6643,2.6644,2.664,2.6668,2.6681,2.6665,2.6653,2.6663,2.6676,2.6669,2.6676,2.6707,2.6694,2.6572,2.6554,2.6536,2.6525,2.6709,2.6709,2.6823,2.6824,2.6825]},{"header":{"parameterUnit":"m.s-1","parameterCategory":1,"la1":30.2991,"la2":30.254,"lo1":-89.0895,"lo2":-89.0444,"dy":0.0017,"dx":0.0017,"nx":28,"ny":28,"refTime":"2025-07-16T03:00:00:Z","depth":0,"parameterNumber":3,"parameterNumberName":"V-component_of_WINDS"},"data":[0,0,0,0,0,0,0,0,0,0,0,0,0,0,0,0,0,0,0,0,0,0,0,0,0,0,0,0,0,0,0,0,0,0,0,0,0,0,0,0,0,0,0,0,0,0,0,0,0,0,0,0,0,0,0,0,0,0,-2.2755,-2.2756,0,-2.2867,-2.2869,-2.287,-2.2872,-2.2871,-2.2869,-2.2868,-2.2982,-2.2986,-2.299,0,0,0,0,0,0,0,0,0,0,0,0,0,-2.2543,-2.2547,-2.2755,-2.2756,-2.2758,-2.2867,-2.2869,-2.287,-2.2872,-2.287,-2.2869,-2.2867,-2.298,-2.2985,-2.2991,0,0,0,0,0,0,0,0,0,0,0,0,0,-2.2643,-2.2548,-2.2755,-2.2772,-2.2775,-2.2867,-2.2869,-2.2871,-2.2873,-2.287,-2.2868,-2.2866,-2.2979,-2.2985,-2.2991,-2.3073,0,0,-2.3011,-2.3014,0,0,0,0,0,0,0,0,-2.2637,-2.2651,-2.2768,-2.2771,-2.2774,-2.2853,-2.2836,-2.2939,-2.2873,-2.2835,-2.2868,-2.2865,-2.2941,-2.295,-2.2976,-2.3079,-2.3084,-2.3012,-2.3016,-2.3019,-2.302,0,0,0,0,0,0,0,-2.263,-2.2646,-2.2799,-2.277,-2.2774,-2.2774,-2.2786,-2.2855,-2.2898,-2.2838,-2.2839,-2.2852,-2.2942,-2.297,-2.2978,-2.3085,-2.3012,-2.3017,-2.3021,-2.3024,-2.3263,-2.3266,0,0,0,0,0,0,-2.262,-2.264,-2.2796,-2.2803,-2.2699,-2.278,-2.2793,-2.283,-2.2898,-2.2906,-2.2854,-2.2852,-2.2959,-2.2971,-2.2982,-2.3084,-2.3018,-2.3025,-2.3028,-2.3261,-2.3264,-2.3266,0,0,0,0,0,0,-2.2615,-2.2634,-2.2791,-2.2722,-2.2742,-2.2786,-2.2827,-2.2833,-2.2861,-2.2909,-2.2917,-2.2874,-2.2958,-2.2973,-2.3051,-2.3088,-2.3027,-2.3033,-2.3258,-2.3262,-2.3265,-2.3288,0,0,0,0,0,0,-2.2609,-2.2632,-2.2664,-2.2722,-2.2745,-2.2858,-2.2829,-2.2837,-2.2872,-2.2871,-2.293,-2.2938,-2.2958,-2.3042,-2.3058,-2.3096,-2.3038,-2.3255,-2.326,-2.3264,-2.3284,-2.3292,-2.3298,0,0,0,0,0,-2.2602,-2.2665,-2.2665,-2.2684,-2.2786,-2.286,-2.2874,-2.2895,-2.2875,-2.2908,-2.2939,-2.2936,-2.3082,-2.305,-2.3068,-2.3109,-2.3253,-2.3258,-2.3264,-2.3281,-2.329,-2.3298,0,0,0,0,0,0,-2.2608,-2.2673,-2.2674,-2.2758,-2.2804,-2.286,-2.2902,-2.2904,-2.2956,-2.2953,-2.2977,-2.299,-2.3068,-2.3096,-2.3059,-2.3193,-2.3165,-2.3174,-2.3171,-2.3181,-2.3188,-2.318,-2.3044,0,0,0,0,0,-2.262,-2.2675,-2.2728,-2.2797,-2.2821,-2.2857,-2.289,-2.2903,-2.2952,-2.2971,-2.3008,-2.3054,-2.3111,-2.3147,-2.3202,-2.3288,-2.3302,-2.3325,-2.3332,-2.3338,-2.3346,-2.3395,-2.3407,-2.3285,-2.3285,-2.3284,0,0,-2.2644,-2.2686,-2.2719,-2.28,-2.2837,-2.2894,-2.2873,-2.2934,-2.2977,-2.298,-2.3056,-2.3085,-2.3139,-2.3222,-2.326,-2.3247,-2.3383,-2.3345,-2.3349,-2.3354,-2.3402,-2.3414,-2.3424,-2.3288,-2.3288,-2.3287,0,0,-2.2717,-2.2754,-2.2816,-2.2854,-2.2911,-2.2935,-2.295,-2.3007,-2.3027,-2.3104,-2.3108,-2.3159,-2.3255,-2.3294,-2.3326,-2.3416,-2.3416,-2.3433,-2.3471,-2.3518,-2.3528,-2.3537,-2.357,-2.3581,-2.344,-2.344,-2.344,0,-2.2739,-2.2825,-2.2848,-2.2909,-2.2945,-2.2952,-2.3015,-2.3051,-2.3122,-2.3147,-2.3132,-2.3254,-2.3291,-2.3383,-2.3406,-2.3431,-2.345,-2.3426,-2.3525,-2.3534,-2.3542,-2.3574,-2.3586,-2.3442,-2.3442,-2.3442,-2.3442,0,-2.2851,-2.2911,-2.2954,-2.3024,-2.3065,-2.3127,-2.3159,-2.3198,-2.3208,-2.3234,-2.3313,-2.3357,-2.3422,-2.3445,-2.3454,-2.3539,-2.353,-2.352,-2.3492,-2.3555,-2.3586,-2.3598,-2.3445,-2.3444,-2.3443,-2.3443,0,0,-2.293,-2.3013,-2.3028,-2.3061,-2.3125,-2.3171,-2.3235,-2.3298,-2.3331,-2.3381,-2.3435,-2.3517,-2.3508,-2.3545,-2.3559,-2.3601,-2.3671,-2.3586,-2.3588,-2.3601,-2.3769,-2.3777,-2.379,-2.3671,-2.3674,-2.3675,-2.3765,0,-2.301,-2.3123,-2.3146,-2.3243,-2.33,-2.3307,-2.3362,-2.3408,-2.3434,-2.3486,-2.3515,-2.3573,-2.3557,-2.3579,-2.3621,-2.3653,-2.3705,-2.3647,-2.3722,-2.3725,-2.3709,-2.3806,-2.3814,-2.3896,-2.3777,-2.3779,-2.378,0,-2.3119,-2.3172,-2.3276,-2.3334,-2.3358,-2.3407,-2.3468,-2.3517,-2.3569,-2.3586,-2.3628,-2.3638,-2.3704,-2.3674,-2.3766,-2.3727,-2.3759,-2.3779,-2.3783,-2.3791,-2.3756,-2.3818,-2.3923,-2.3935,-2.3799,-2.3797,-2.3796,0,-2.3168,-2.3265,-2.334,-2.3367,-2.3437,-2.3471,-2.3502,-2.3552,-2.3589,-2.3642,-2.3667,-2.3727,-2.376,-2.3807,-2.3833,-2.3808,-2.3924,-2.3895,-2.394,-2.3939,-2.3964,-2.3962,-2.4077,-2.3984,-2.3984,-2.3983,-2.3983,0,-2.3255,-2.3318,-2.3363,-2.3409,-2.3481,-2.3507,-2.3577,-2.3607,-2.3652,-2.3704,-2.3714,-2.3763,-2.3795,-2.3849,-2.387,-2.3944,-2.3958,-2.3974,-2.3979,-2.3973,-2.3972,-2.3995,-2.399,-2.3987,-2.3986,-2.3985,-2.3985,0,-2.3321,-2.3354,-2.3436,-2.3496,-2.3512,-2.3562,-2.3613,-2.3659,-2.3686,-2.3752,-2.3769,-2.3812,-2.3876,-2.3907,-2.3986,-2.4,-2.4084,-2.4085,-2.4067,-2.4069,-2.4112,-2.4108,-2.4246,-2.4266,-2.4159,-2.416,-2.4161,0,-2.3375,-2.3425,-2.349,-2.3526,-2.3558,-2.3615,-2.3654,-2.3682,-2.3722,-2.3786,-2.3824,-2.3888,-2.3942,-2.4044,-2.4082,-2.4143,-2.4146,-2.419,-2.4155,-2.4148,-2.4147,-2.4145,-2.415,-2.4196,-2.4197,-2.4198,-2.4199,0,-2.3468,-2.3482,-2.3538,-2.3599,-2.3645,-2.3695,-2.3744,-2.3773,-2.3809,-2.3853,-2.3919,-2.3961,-2.4043,-2.4107,-2.4171,-2.4202,-2.4207,-2.4209,-2.4223,-2.4218,-2.4206,-2.4215,-2.4085,-2.4206,-2.4205,-2.4205,-2.4204,-2.4204,-2.3531,-2.3575,-2.3629,-2.3691,-2.3731,-2.3777,-2.3823,-2.3856,-2.3912,-2.3981,-2.3994,-2.4064,-2.4117,-2.4203,-2.4237,-2.4293,-2.4283,-2.4303,-2.4308,-2.4313,-2.4315,-2.4197,-2.4305,-2.4305,-2.4304,-2.4304,-2.4304,0,-2.3625,-2.366,-2.3717,-2.3785,-2.3835,-2.3835,-2.389,-2.3931,-2.3993,-2.4041,-2.4094,-2.4171,-2.4234,-2.4277,-2.4342,-2.4378,-2.4382,-2.4394,-2.4392,-2.4399,-2.432,-2.4302,-2.439,-2.439,-2.439,-2.439,-2.439,-2.439,-2.3679,-2.3756,-2.3776,-2.3873,-2.3907,-2.3977,-2.4008,-2.4051,-2.409,-2.4176,-2.4229,-2.4257,-2.4304,-2.4372,-2.443,-2.4441,-2.4465,-2.4478,-2.4489,-2.4414,-2.4405,-2.4396,-2.438,-2.4482,-2.4482,-2.4564,-2.4564,-2.4565]}]]